This demonstration page uses our WeatherBlox Daily Observations layout. Learn more.

Left ArrowRight Arrow

41.86663, -103.66717

Hourly Observations for July 15, 2018

Temp ( °F °C ) Dew Point ( °F °C ) Humidity (%) Winds ( mph kmh ) Pressure ( in mb ) Visibility ( mi km ) Precip ( " mm )
12:53 am 00:53 Clear 70 21.1 63 17.2 79 79 E 9 15 29.93 1013 10 16.0934 N/A
1:53 am 01:53 Clear 69 20.6 63 17.2 81 81 E 6 9 29.94 1014 10 16.0934 N/A
2:53 am 02:53 Mostly Cloudy with Light Rain 73 22.8 64 17.8 74 74 N 6 9 29.96 1014 10 16.0934 N/A
3:53 am 03:53 Mostly Clear 74 23.3 62 16.7 67 67 NNE 21 33 29.95 1014 10 16.0934 N/A
4:53 am 04:53 Clear 69 20.6 64 17.8 84 84 NE 25 41 29.97 1015 10 16.0934 N/A
5:53 am 05:53 Sunny 68 20 63 17.2 84 84 NNE 14 22 30.03 1017 10 16.0934 N/A
6:53 am 06:53 Partly Cloudy 66 18.9 62 16.7 87 87 NE 16 26 30.06 1018 10 16.0934 N/A
7:53 am 07:53 Mostly Sunny 69 20.6 61 16.1 76 76 NE 12 19 30.09 1019 10 16.0934 N/A
8:36 am 08:36 Cloudy 68 20 61 16.1 78 78 NE 13 20 30.09 1019 10 16.0934 N/A
8:53 am 08:53 Cloudy 68 20 60 15.6 76 76 NNE 13 20 30.14 1021 10 16.0934 N/A
9:53 am 09:53 Cloudy 68 20 60 15.6 76 76 NNE 17 28 30.15 1021 10 16.0934 N/A
10:53 am 10:53 Cloudy 69 20.6 60 15.6 73 73 NE 12 19 30.17 1022 10 16.0934 N/A
11:53 am 11:53 Mostly Cloudy 70 21.1 61 16.1 73 73 E 7 11 30.16 1021 10 16.0934 N/A
12:53 pm 12:53 Cloudy with Light Rain 67 19.4 62 16.7 84 84 S 3 6 30.16 1022 8 12.87472 0.01 0.254
1:34 pm 13:34 Cloudy with Heavy Rain 64 18 64 18 100 100 SSW 5 7 30.12 1020 2 3.21868 N/A
1:46 pm 13:46 Cloudy with Light Rain 65 18.3 65 18.3 100 100 SSW 5 7 30.09 1019 7 11.26538 0.11 2.794
1:53 pm 13:53 Cloudy with Light Rain 65 18.3 65 18.3 100 100 S 6 9 30.16 1021 9 14.48406 0.11 2.794
2:53 pm 14:53 Cloudy with Light Rain 67 19.4 65 18.3 93 93 S 8 13 30.11 1020 10 16.0934 0.01 0.254
3:53 pm 15:53 Sunny 71 21.7 64 17.8 79 79 VRB 3 6 30.09 1019 10 16.0934 N/A
4:53 pm 16:53 Sunny with Light Rain 75 23.9 64 17.8 69 69 VRB 3 6 30.09 1019 10 16.0934 N/A
5:53 pm 17:53 Partly Cloudy 73 22.8 64 17.8 74 74 E 3 6 30.07 1018 10 16.0934 N/A
6:03 pm 18:03 Mostly Cloudy 73 22.8 64 17.8 74 74 ENE 5 7 29.94 1014 10 16.0934 N/A
6:13 pm 18:13 Mostly Sunny 74 23.3 64 17.8 71 71 VRB 3 6 29.94 1014 10 16.0934 N/A
6:53 pm 18:53 Sunny 75 23.9 64 17.8 69 69 VRB 3 6 30.06 1018 10 16.0934 N/A
7:53 pm 19:53 Sunny 71 21.7 65 18.3 81 81 ESE 6 9 30.06 1018 10 16.0934 N/A
8:53 pm 20:53 Clear 69 20.6 64 17.8 84 84 SSE 5 7 30.08 1019 10 16.0934 N/A
9:53 pm 21:53 Clear 66 18.9 64 17.8 93 93 ESE 3 6 30.1 1019 10 16.0934 N/A
10:53 pm 22:53 Clear 63 17.2 63 17.2 100 100 E 6 9 30.1 1019 10 16.0934 N/A
11:53 pm 23:53 Clear 62 16.7 62 16.7 100 100 E 6 9 30.09 1019 10 16.0934 N/A

Powered by AerisWeather